EDW114 LSZH-GMMX

Flight info

Callsign EDW114
Flight time 3h 2m
Altitude 37000
Route VEBIT T50 ROTOS Z669 ULMES DCT VADAR DCT NINTU DCT MEBAK DCT REPSI DCT LERGA DCT MINSO DCT NARAK DCT AGN DCT MAQAB DCT TIVLI DCT ELSAP DCT ZAR DCT EXEMU DCT PISUS DCT EDIMU DCT ADUXO DCT NUSGO DCT OBIBO DCT NASOS DCT ANZAN DCT BLN DCT MGA DCT PIMOS DCT GALTO UN869 MABAP
Aircraft A343/H-SDE2E3FGHIJ4J5M1RWXY/LB1D1

Departure

Time 2026-05-05 06:05
Airport Zürich Airport (LSZH)

Arrival

Time 2026-05-05 09:07
Airport Marrakesh Menara Airport (GMMX)
Time Latitude Longitude Altitude Speed Heading
2026-05-05 05:44 47.46062 8.55337 1409 ft 0 kts
2026-05-05 05:52 47.46058 8.55337 1409 ft 2 kts
2026-05-05 05:52 47.46042 8.55336 1411 ft 0 kts
2026-05-05 05:53 47.46032 8.55334 1410 ft 2 kts
2026-05-05 05:53 47.46017 8.55330 1409 ft 2 kts
2026-05-05 05:53 47.46002 8.55328 1403 ft 2 kts 338°
2026-05-05 05:53 47.45991 8.55335 1411 ft 2 kts 321°
2026-05-05 05:54 47.45982 8.55345 1411 ft 1 kts 303°
2026-05-05 05:54 47.45978 8.55353 1411 ft 1 kts 287°
2026-05-05 05:54 47.45976 8.55361 1411 ft 1 kts 279°
2026-05-05 05:54 47.45975 8.55369 1404 ft 1 kts 275°
2026-05-05 05:55 47.45975 8.55370 1404 ft 0 kts 275°
2026-05-05 05:56 47.45976 8.55348 1411 ft 5 kts 275°
2026-05-05 05:56 47.45981 8.55273 1417 ft 9 kts 275°
2026-05-05 05:57 47.45987 8.55169 1398 ft 11 kts 275°
2026-05-05 05:57 47.45996 8.55043 1403 ft 11 kts 276°
2026-05-05 05:57 47.46017 8.54948 1404 ft 11 kts 314°
2026-05-05 05:57 47.46090 8.54892 1402 ft 13 kts 335°
2026-05-05 05:58 47.46144 8.54855 1401 ft 13 kts 335°
2026-05-05 05:58 47.46231 8.54795 1402 ft 15 kts 335°
2026-05-05 05:58 47.46330 8.54727 1387 ft 17 kts 335°
2026-05-05 05:58 47.46436 8.54654 1385 ft 16 kts 335°
2026-05-05 05:59 47.46537 8.54583 1401 ft 16 kts 334°
2026-05-05 05:59 47.46638 8.54514 1403 ft 17 kts 335°
2026-05-05 05:59 47.46752 8.54440 1384 ft 19 kts 338°
2026-05-05 05:59 47.46878 8.54365 1382 ft 20 kts 334°
2026-05-05 06:00 47.47038 8.54254 1384 ft 19 kts 335°
2026-05-05 06:00 47.47117 8.54200 1388 ft 18 kts 335°
2026-05-05 06:00 47.47230 8.54122 1400 ft 15 kts 335°
2026-05-05 06:00 47.47244 8.54111 1400 ft 2 kts 335°
2026-05-05 06:01 47.47258 8.54102 1403 ft 2 kts 335°
2026-05-05 06:01 47.47277 8.54089 1400 ft 4 kts 335°
2026-05-05 06:01 47.47308 8.54068 1399 ft 5 kts 335°
2026-05-05 06:01 47.47340 8.54046 1402 ft 5 kts 335°
2026-05-05 06:02 47.47368 8.54026 1405 ft 4 kts 335°
2026-05-05 06:02 47.47390 8.54011 1404 ft 3 kts 335°
2026-05-05 06:02 47.47412 8.53996 1403 ft 4 kts 335°
2026-05-05 06:02 47.47447 8.53971 1398 ft 7 kts 335°
2026-05-05 06:03 47.47497 8.53937 1403 ft 9 kts 335°
2026-05-05 06:03 47.47558 8.53895 1405 ft 10 kts 334°
2026-05-05 06:03 47.47604 8.53823 1410 ft 9 kts 293°
2026-05-05 06:03 47.47602 8.53737 1411 ft 8 kts 252°
2026-05-05 06:04 47.47582 8.53665 1411 ft 7 kts 247°
2026-05-05 06:04 47.47561 8.53617 1411 ft 4 kts 212°
2026-05-05 06:04 47.47535 8.53621 1406 ft 5 kts 160°
2026-05-05 06:04 47.47526 8.53627 1412 ft 4 kts 156°
2026-05-05 06:05 47.47378 8.53724 1404 ft 53 kts 156°
2026-05-05 06:05 47.46854 8.54088 1384 ft 111 kts 155°
2026-05-05 06:05 47.46007 8.54673 1406 ft 156 kts 155°
2026-05-05 06:05 47.45056 8.55325 2077 ft 144 kts 155°
2026-05-05 06:06 47.44122 8.55992 2504 ft 158 kts 150°
2026-05-05 06:06 47.43426 8.57329 2850 ft 172 kts 104°
2026-05-05 06:06 47.43566 8.59001 3583 ft 164 kts 60°
2026-05-05 06:06 47.44427 8.60026 4277 ft 163 kts 17°
2026-05-05 06:07 47.45538 8.59878 4913 ft 167 kts 334°
2026-05-05 06:07 47.46304 8.58606 5458 ft 171 kts 290°
2026-05-05 06:07 47.46384 8.56821 5909 ft 184 kts 260°
2026-05-05 06:07 47.46011 8.54878 6103 ft 216 kts 247°
2026-05-05 06:08 47.45364 8.52711 6409 ft 245 kts 243°
2026-05-05 06:08 47.44569 8.50345 6861 ft 266 kts 242°
2026-05-05 06:08 47.43708 8.47879 7647 ft 273 kts 241°
2026-05-05 06:08 47.42829 8.45377 8539 ft 276 kts 241°
2026-05-05 06:09 47.41937 8.42857 9419 ft 278 kts 241°
2026-05-05 06:09 47.41034 8.40314 10251 ft 283 kts 240°
2026-05-05 06:09 47.40086 8.37650 10626 ft 302 kts 240°
2026-05-05 06:09 47.39078 8.34814 10935 ft 322 kts 240°
2026-05-05 06:10 47.38017 8.31828 11417 ft 334 kts 240°
2026-05-05 06:10 47.36926 8.28758 12095 ft 339 kts 240°
2026-05-05 06:10 47.35825 8.25660 12891 ft 342 kts 239°
2026-05-05 06:10 47.34732 8.22588 13689 ft 344 kts 239°
2026-05-05 06:11 47.33615 8.19457 14401 ft 346 kts 239°
2026-05-05 06:11 47.32488 8.16301 15060 ft 350 kts 239°
2026-05-05 06:11 47.31349 8.13116 15727 ft 353 kts 239°
2026-05-05 06:11 47.30199 8.09900 16428 ft 356 kts 239°
2026-05-05 06:12 47.29044 8.06675 17177 ft 357 kts 239°
2026-05-05 06:12 47.27788 8.03508 17848 ft 360 kts 236°
2026-05-05 06:12 47.26465 8.00357 18408 ft 366 kts 236°
2026-05-05 06:12 47.25086 7.97134 18661 ft 379 kts 235°
2026-05-05 06:13 47.23648 7.93818 18985 ft 389 kts 235°
2026-05-05 06:13 47.22169 7.90437 19455 ft 395 kts 235°
2026-05-05 06:13 47.20671 7.87023 19996 ft 399 kts 235°
2026-05-05 06:13 47.19158 7.83580 20529 ft 403 kts 235°
2026-05-05 06:14 47.17631 7.80107 21064 ft 406 kts 235°
2026-05-05 06:14 47.16091 7.76606 21601 ft 410 kts 236°
2026-05-05 06:14 47.14534 7.73070 22119 ft 413 kts 236°
2026-05-05 06:14 47.12966 7.69513 22619 ft 417 kts 236°
2026-05-05 06:15 47.11386 7.65934 23189 ft 418 kts 236°
2026-05-05 06:15 47.09796 7.62336 23695 ft 421 kts 235°
2026-05-05 06:15 47.08195 7.58718 24091 ft 424 kts 235°
2026-05-05 06:15 47.06605 7.55130 24515 ft 426 kts 235°
2026-05-05 06:16 47.04983 7.51475 24930 ft 429 kts 235°
2026-05-05 06:16 47.03348 7.47798 25355 ft 431 kts 235°
2026-05-05 06:16 47.01706 7.44107 25760 ft 433 kts 235°
2026-05-05 06:16 47.00056 7.40404 26146 ft 435 kts 234°
2026-05-05 06:17 46.98396 7.36683 26496 ft 439 kts 234°
2026-05-05 06:17 46.96711 7.32913 26758 ft 444 kts 234°
2026-05-05 06:17 46.95014 7.29120 27142 ft 446 kts 234°
2026-05-05 06:17 46.93310 7.25317 27514 ft 448 kts 234°
2026-05-05 06:18 46.91594 7.21491 27849 ft 451 kts 234°
2026-05-05 06:18 46.89871 7.17656 28187 ft 452 kts 233°
2026-05-05 06:18 46.88140 7.13808 28543 ft 454 kts 233°
2026-05-05 06:18 46.86398 7.09939 28889 ft 456 kts 233°
2026-05-05 06:19 46.84647 7.06057 29220 ft 458 kts 233°
2026-05-05 06:19 46.82889 7.02164 29525 ft 460 kts 233°
2026-05-05 06:19 46.81123 6.98260 29868 ft 461 kts 233°
2026-05-05 06:19 46.79380 6.94410 30249 ft 460 kts 233°
2026-05-05 06:20 46.77620 6.90526 30719 ft 457 kts 233°
2026-05-05 06:20 46.75869 6.86669 31182 ft 454 kts 232°
2026-05-05 06:20 46.74128 6.82837 31544 ft 453 kts 232°
2026-05-05 06:20 46.72392 6.79026 31963 ft 450 kts 232°
2026-05-05 06:21 46.70667 6.75241 32421 ft 446 kts 232°
2026-05-05 06:21 46.68951 6.71484 32884 ft 443 kts 231°
2026-05-05 06:21 46.67250 6.67763 33323 ft 440 kts 231°
2026-05-05 06:21 46.65558 6.64067 33762 ft 437 kts 231°
2026-05-05 06:22 46.63875 6.60398 34145 ft 434 kts 231°
2026-05-05 06:22 46.62198 6.56748 34400 ft 434 kts 231°
2026-05-05 06:22 46.60514 6.53089 34593 ft 435 kts 231°
2026-05-05 06:22 46.58848 6.49472 34824 ft 435 kts 232°
2026-05-05 06:23 46.57162 6.45819 35064 ft 436 kts 232°
2026-05-05 06:23 46.55469 6.42152 35265 ft 437 kts 232°
2026-05-05 06:23 46.53775 6.38487 35471 ft 437 kts 232°
2026-05-05 06:23 46.52078 6.34821 35687 ft 437 kts 232°
2026-05-05 06:24 46.50377 6.31149 35917 ft 438 kts 233°
2026-05-05 06:24 46.48676 6.27483 36120 ft 438 kts 233°
2026-05-05 06:24 46.46974 6.23820 36335 ft 438 kts 233°
2026-05-05 06:24 46.45270 6.20157 36565 ft 438 kts 233°
2026-05-05 06:25 46.43561 6.16489 36827 ft 438 kts 233°
2026-05-05 06:25 46.41849 6.12819 37069 ft 439 kts 233°
2026-05-05 06:25 46.40161 6.09204 37275 ft 438 kts 234°
2026-05-05 06:25 46.38451 6.05548 37540 ft 437 kts 234°
2026-05-05 06:26 46.36746 6.01906 37761 ft 437 kts 234°
2026-05-05 06:26 46.35039 5.98266 37929 ft 438 kts 234°
2026-05-05 06:26 46.33326 5.94617 38103 ft 438 kts 234°
2026-05-05 06:26 46.31610 5.90969 38306 ft 438 kts 234°
2026-05-05 06:27 46.29897 5.87330 38510 ft 438 kts 234°
2026-05-05 06:27 46.26467 5.80058 38806 ft 438 kts 234°
2026-05-05 06:28 46.23024 5.72777 38899 ft 438 kts 234°
2026-05-05 06:28 46.19601 5.65557 38892 ft 434 kts 234°
2026-05-05 06:29 46.16190 5.58380 38902 ft 433 kts 234°
2026-05-05 06:29 46.12793 5.51256 38894 ft 434 kts 234°
2026-05-05 06:30 46.09358 5.44093 38900 ft 434 kts 234°
2026-05-05 06:30 46.05922 5.36948 38889 ft 434 kts 234°
2026-05-05 06:31 46.02483 5.29813 38890 ft 433 kts 234°
2026-05-05 06:31 45.99043 5.22692 38890 ft 432 kts 234°
2026-05-05 06:32 45.95629 5.15641 38885 ft 432 kts 234°
2026-05-05 06:32 45.92188 5.08551 38887 ft 433 kts 233°
2026-05-05 06:33 45.88730 5.01445 38902 ft 434 kts 233°
2026-05-05 06:33 45.85256 4.94326 38902 ft 434 kts 233°
2026-05-05 06:34 45.81786 4.87230 38910 ft 435 kts 233°
2026-05-05 06:34 45.78306 4.80132 38908 ft 435 kts 233°
2026-05-05 06:35 45.74842 4.73086 38904 ft 435 kts 233°
2026-05-05 06:35 45.71353 4.66007 38884 ft 436 kts 233°
2026-05-05 06:36 45.67847 4.58895 38879 ft 437 kts 233°
2026-05-05 06:36 45.64327 4.51789 38881 ft 437 kts 233°
2026-05-05 06:37 45.60809 4.44704 38882 ft 437 kts 233°
2026-05-05 06:37 45.57289 4.37631 38884 ft 437 kts 233°
2026-05-05 06:38 45.53787 4.30610 38884 ft 437 kts 233°
2026-05-05 06:38 45.50253 4.23540 38888 ft 437 kts 233°
2026-05-05 06:39 45.46724 4.16507 38883 ft 436 kts 233°
2026-05-05 06:39 45.43195 4.09494 38884 ft 435 kts 233°
2026-05-05 06:40 45.39659 4.02483 38885 ft 435 kts 233°
2026-05-05 06:40 45.36121 3.95484 38888 ft 435 kts 233°
2026-05-05 06:41 45.32580 3.88497 38889 ft 436 kts 233°
2026-05-05 06:41 45.29032 3.81509 38892 ft 436 kts 233°
2026-05-05 06:42 45.25499 3.74572 38892 ft 436 kts 233°
2026-05-05 06:42 45.21980 3.67507 38891 ft 441 kts 234°
2026-05-05 06:43 45.18471 3.60329 38891 ft 442 kts 234°
2026-05-05 06:43 45.14959 3.53177 38892 ft 442 kts 234°
2026-05-05 06:44 45.11456 3.46095 38891 ft 442 kts 234°
2026-05-05 06:44 45.07923 3.38981 38895 ft 442 kts 234°
2026-05-05 06:45 45.04383 3.31872 38900 ft 442 kts 234°
2026-05-05 06:45 45.00840 3.24773 38902 ft 442 kts 233°
2026-05-05 06:46 44.97893 3.18881 38903 ft 442 kts 233°
2026-05-05 06:46 44.94343 3.11800 38901 ft 442 kts 233°
2026-05-05 06:47 44.90793 3.04735 38925 ft 441 kts 233°
2026-05-05 06:47 44.87233 2.97670 38908 ft 443 kts 233°
2026-05-05 06:48 44.83659 2.90558 38911 ft 444 kts 234°
2026-05-05 06:48 44.80296 2.83303 38918 ft 445 kts 236°
2026-05-05 06:49 44.76979 2.75946 38922 ft 445 kts 236°
2026-05-05 06:49 44.73633 2.68622 38930 ft 445 kts 236°
2026-05-05 06:50 44.70256 2.61321 38936 ft 445 kts 236°
2026-05-05 06:50 44.66871 2.54042 38933 ft 445 kts 236°
2026-05-05 06:51 44.63479 2.46767 38937 ft 445 kts 236°
2026-05-05 06:51 44.60104 2.39544 38939 ft 445 kts 236°
2026-05-05 06:52 44.56708 2.32291 38934 ft 443 kts 236°
2026-05-05 06:52 44.53332 2.25099 38944 ft 441 kts 235°
2026-05-05 06:53 44.49948 2.17907 38940 ft 443 kts 235°
2026-05-05 06:53 44.46547 2.10701 38945 ft 443 kts 235°
2026-05-05 06:54 44.43144 2.03504 38948 ft 443 kts 235°
2026-05-05 06:54 44.39761 1.96369 38943 ft 443 kts 235°
2026-05-05 06:55 44.36347 1.89186 38963 ft 443 kts 235°
2026-05-05 06:55 44.32926 1.82008 38947 ft 444 kts 235°
2026-05-05 06:56 44.29492 1.74817 38964 ft 445 kts 235°
2026-05-05 06:56 44.26139 1.67622 38954 ft 445 kts 236°
2026-05-05 06:57 44.22821 1.60340 38953 ft 445 kts 237°
2026-05-05 06:57 44.19491 1.53065 38963 ft 444 kts 236°
2026-05-05 06:58 44.16149 1.45817 38966 ft 445 kts 236°
2026-05-05 06:58 44.12788 1.38561 38969 ft 446 kts 236°
2026-05-05 06:59 44.09420 1.31309 38969 ft 446 kts 236°
2026-05-05 06:59 44.06067 1.24104 38971 ft 446 kts 236°
2026-05-05 07:00 44.02692 1.16870 38969 ft 446 kts 236°
2026-05-05 07:00 43.99315 1.09650 38970 ft 445 kts 236°
2026-05-05 07:01 43.95942 1.02456 38971 ft 445 kts 236°
2026-05-05 07:01 43.92562 0.95266 38968 ft 445 kts 236°
2026-05-05 07:02 43.89051 0.88200 38971 ft 445 kts 230°
2026-05-05 07:02 43.84690 0.82136 38971 ft 444 kts 223°
2026-05-05 07:03 43.80113 0.76440 38969 ft 444 kts 222°
2026-05-05 07:03 43.75475 0.70780 38972 ft 445 kts 222°
2026-05-05 07:04 43.70825 0.65092 38977 ft 445 kts 222°
2026-05-05 07:04 43.66186 0.59402 38977 ft 446 kts 222°
2026-05-05 07:05 43.61577 0.53751 38970 ft 445 kts 222°
2026-05-05 07:05 43.56948 0.48089 38979 ft 444 kts 222°
2026-05-05 07:06 43.52316 0.42436 38977 ft 444 kts 222°
2026-05-05 07:06 43.47687 0.36798 38983 ft 444 kts 222°
2026-05-05 07:07 43.43046 0.31158 38975 ft 445 kts 222°
2026-05-05 07:07 43.38427 0.25556 38977 ft 444 kts 222°
2026-05-05 07:08 43.33797 0.19958 38980 ft 443 kts 222°
2026-05-05 07:08 43.29164 0.14368 38979 ft 443 kts 222°
2026-05-05 07:09 43.24533 0.08791 38993 ft 443 kts 222°
2026-05-05 07:09 43.19892 0.03214 38979 ft 442 kts 222°
2026-05-05 07:10 43.15295 -0.02299 38996 ft 441 kts 222°
2026-05-05 07:10 43.10667 -0.07838 38992 ft 442 kts 222°
2026-05-05 07:11 43.06026 -0.13381 38989 ft 443 kts 222°
2026-05-05 07:11 43.01381 -0.18917 38983 ft 443 kts 222°
2026-05-05 07:12 42.96737 -0.24440 38984 ft 441 kts 223°
2026-05-05 07:12 42.92109 -0.29933 38983 ft 441 kts 223°
2026-05-05 07:13 42.87472 -0.35426 38982 ft 441 kts 223°
2026-05-05 07:13 42.82844 -0.40847 38982 ft 441 kts 220°
2026-05-05 07:14 42.77559 -0.45149 38984 ft 446 kts 206°
2026-05-05 07:14 42.71807 -0.48365 38985 ft 447 kts 204°
2026-05-05 07:15 42.65980 -0.51380 38984 ft 448 kts 204°
2026-05-05 07:15 42.60150 -0.54387 38975 ft 448 kts 204°
2026-05-05 07:16 42.54339 -0.57414 38983 ft 446 kts 204°
2026-05-05 07:16 42.48542 -0.60446 38980 ft 446 kts 204°
2026-05-05 07:17 42.42786 -0.63455 38987 ft 446 kts 204°
2026-05-05 07:17 42.36994 -0.66474 38983 ft 446 kts 204°
2026-05-05 07:18 42.31210 -0.69480 38985 ft 445 kts 204°
2026-05-05 07:18 42.25432 -0.72478 38985 ft 445 kts 204°
2026-05-05 07:19 42.19654 -0.75470 38986 ft 445 kts 204°
2026-05-05 07:19 42.13883 -0.78452 38989 ft 444 kts 205°
2026-05-05 07:20 42.08120 -0.81424 38990 ft 443 kts 205°
2026-05-05 07:20 42.02351 -0.84394 38990 ft 443 kts 205°
2026-05-05 07:21 41.96624 -0.87343 38980 ft 443 kts 205°
2026-05-05 07:21 41.90862 -0.90295 38993 ft 443 kts 205°
2026-05-05 07:22 41.85104 -0.93239 38994 ft 443 kts 205°
2026-05-05 07:22 41.79346 -0.96179 38992 ft 443 kts 205°
2026-05-05 07:23 41.73588 -0.99115 38995 ft 442 kts 205°
2026-05-05 07:23 41.67846 -1.02069 38990 ft 440 kts 207°
2026-05-05 07:24 41.62558 -1.06057 38993 ft 435 kts 216°
2026-05-05 07:24 41.57568 -1.10558 38992 ft 435 kts 218°
2026-05-05 07:25 41.52595 -1.15165 39008 ft 435 kts 218°
2026-05-05 07:25 41.47620 -1.19756 38993 ft 435 kts 218°
2026-05-05 07:26 41.42633 -1.24325 38997 ft 435 kts 218°
2026-05-05 07:26 41.37631 -1.28888 38982 ft 435 kts 218°
2026-05-05 07:27 41.32666 -1.33408 38981 ft 435 kts 218°
2026-05-05 07:27 41.27677 -1.37940 38994 ft 433 kts 218°
2026-05-05 07:28 41.22711 -1.42453 38995 ft 432 kts 218°
2026-05-05 07:28 41.17742 -1.46965 38998 ft 432 kts 218°
2026-05-05 07:29 41.12765 -1.51471 39003 ft 432 kts 218°
2026-05-05 07:29 41.07794 -1.55954 39002 ft 432 kts 218°
2026-05-05 07:30 41.02863 -1.60395 39000 ft 431 kts 218°
2026-05-05 07:30 40.95411 -1.67095 39000 ft 431 kts 218°
2026-05-05 07:31 40.90445 -1.71550 38998 ft 431 kts 218°
2026-05-05 07:31 40.85485 -1.75990 38994 ft 429 kts 218°
2026-05-05 07:32 40.80574 -1.80379 38997 ft 427 kts 218°
2026-05-05 07:32 40.75656 -1.84769 38995 ft 427 kts 218°
2026-05-05 07:33 40.70732 -1.89152 38989 ft 427 kts 218°
2026-05-05 07:33 40.65806 -1.93527 38989 ft 427 kts 218°
2026-05-05 07:34 40.60868 -1.97903 38985 ft 428 kts 218°
2026-05-05 07:34 40.55923 -2.02280 38986 ft 428 kts 218°
2026-05-05 07:35 40.50976 -2.06650 38984 ft 428 kts 218°
2026-05-05 07:35 40.46862 -2.10284 38983 ft 428 kts 218°
2026-05-05 07:36 40.41914 -2.14637 38983 ft 427 kts 218°
2026-05-05 07:36 40.36987 -2.18970 38986 ft 425 kts 218°
2026-05-05 07:37 40.32104 -2.23253 38984 ft 425 kts 218°
2026-05-05 07:37 40.27177 -2.27565 38983 ft 425 kts 218°
2026-05-05 07:38 40.22250 -2.31874 38965 ft 427 kts 218°
2026-05-05 07:38 40.17319 -2.36177 38985 ft 424 kts 218°
2026-05-05 07:39 40.12420 -2.40444 38987 ft 423 kts 218°
2026-05-05 07:39 40.07515 -2.44711 38985 ft 423 kts 218°
2026-05-05 07:40 40.02642 -2.48944 38991 ft 423 kts 218°
2026-05-05 07:40 39.97738 -2.53195 38988 ft 422 kts 218°
2026-05-05 07:41 39.92851 -2.57422 38990 ft 420 kts 218°
2026-05-05 07:41 39.87978 -2.61631 38999 ft 420 kts 218°
2026-05-05 07:42 39.83103 -2.65836 38998 ft 420 kts 218°
2026-05-05 07:42 39.78226 -2.70034 38999 ft 421 kts 218°
2026-05-05 07:43 39.73340 -2.74233 38999 ft 420 kts 218°
2026-05-05 07:43 39.68468 -2.78411 39004 ft 419 kts 218°
2026-05-05 07:44 39.63628 -2.82557 39010 ft 419 kts 218°
2026-05-05 07:44 39.58763 -2.86719 39007 ft 419 kts 218°
2026-05-05 07:45 39.53893 -2.90876 38986 ft 419 kts 218°
2026-05-05 07:45 39.49026 -2.95024 39003 ft 418 kts 218°
2026-05-05 07:46 39.44162 -2.99162 39005 ft 417 kts 218°
2026-05-05 07:46 39.39139 -3.02996 39011 ft 423 kts 210°
2026-05-05 07:47 39.33701 -3.05868 39011 ft 426 kts 207°
2026-05-05 07:47 39.28134 -3.08569 38997 ft 428 kts 206°
2026-05-05 07:48 39.22554 -3.11240 39009 ft 427 kts 207°
2026-05-05 07:48 39.16983 -3.13925 39013 ft 427 kts 207°
2026-05-05 07:49 39.11413 -3.16620 39012 ft 427 kts 207°
2026-05-05 07:49 39.05844 -3.19313 38998 ft 427 kts 207°
2026-05-05 07:50 39.00281 -3.21999 39016 ft 427 kts 207°
2026-05-05 07:50 38.94754 -3.24667 39015 ft 427 kts 207°
2026-05-05 07:51 38.89190 -3.27339 39015 ft 427 kts 207°
2026-05-05 07:51 38.83625 -3.30009 38996 ft 427 kts 207°
2026-05-05 07:52 38.78056 -3.32678 39016 ft 427 kts 207°
2026-05-05 07:52 38.72483 -3.35344 39015 ft 427 kts 207°
2026-05-05 07:53 38.66916 -3.38002 39019 ft 427 kts 207°
2026-05-05 07:53 38.61376 -3.40644 39018 ft 427 kts 207°
2026-05-05 07:54 38.55802 -3.43298 39023 ft 428 kts 207°
2026-05-05 07:54 38.50216 -3.45953 39021 ft 428 kts 207°
2026-05-05 07:55 38.44626 -3.48604 39020 ft 428 kts 207°
2026-05-05 07:55 38.39040 -3.51250 39020 ft 428 kts 207°
2026-05-05 07:56 38.33459 -3.53888 39024 ft 427 kts 207°
2026-05-05 07:56 38.27878 -3.56525 39025 ft 428 kts 207°
2026-05-05 07:57 38.22329 -3.59141 39029 ft 428 kts 207°
2026-05-05 07:57 38.16740 -3.61770 39028 ft 428 kts 207°
2026-05-05 07:58 38.11214 -3.64539 39023 ft 425 kts 210°
2026-05-05 07:58 38.05838 -3.67663 39029 ft 425 kts 211°
2026-05-05 07:59 38.00463 -3.70812 39030 ft 425 kts 211°
2026-05-05 07:59 37.95066 -3.73900 39031 ft 425 kts 210°
2026-05-05 08:00 37.89688 -3.76934 39037 ft 425 kts 210°
2026-05-05 08:00 37.84282 -3.79973 39035 ft 424 kts 210°
2026-05-05 08:01 37.78890 -3.82999 39041 ft 423 kts 210°
2026-05-05 08:01 37.73496 -3.86026 39037 ft 424 kts 210°
2026-05-05 08:02 37.68095 -3.89053 39036 ft 424 kts 210°
2026-05-05 08:02 37.62694 -3.92074 39030 ft 424 kts 210°
2026-05-05 08:03 37.57332 -3.95067 39034 ft 424 kts 210°
2026-05-05 08:03 37.51942 -3.98073 39038 ft 423 kts 210°
2026-05-05 08:04 37.46544 -4.01077 39038 ft 424 kts 210°
2026-05-05 08:04 37.41147 -4.04077 39043 ft 424 kts 210°
2026-05-05 08:05 37.35749 -4.07073 39041 ft 424 kts 210°
2026-05-05 08:05 37.30354 -4.10062 39040 ft 423 kts 210°
2026-05-05 08:06 37.24960 -4.13045 39043 ft 423 kts 210°
2026-05-05 08:06 37.19602 -4.16004 39040 ft 423 kts 210°
2026-05-05 08:07 37.14208 -4.18979 39025 ft 423 kts 210°
2026-05-05 08:07 37.08809 -4.21952 39034 ft 424 kts 209°
2026-05-05 08:08 37.03408 -4.24921 39025 ft 424 kts 209°
2026-05-05 08:08 36.98007 -4.27887 39030 ft 424 kts 209°
2026-05-05 08:09 36.92598 -4.30851 39020 ft 424 kts 209°
2026-05-05 08:09 36.87194 -4.33807 39020 ft 424 kts 209°
2026-05-05 08:10 36.81811 -4.36859 39021 ft 423 kts 214°
2026-05-05 08:10 36.76832 -4.40582 39020 ft 419 kts 217°
2026-05-05 08:11 36.71911 -4.44486 39020 ft 419 kts 217°
2026-05-05 08:11 36.67010 -4.48407 39020 ft 419 kts 217°
2026-05-05 08:12 36.62096 -4.52320 39018 ft 420 kts 217°
2026-05-05 08:12 36.57166 -4.56228 39021 ft 421 kts 217°
2026-05-05 08:13 36.52219 -4.60138 39015 ft 421 kts 217°
2026-05-05 08:13 36.47277 -4.64037 39015 ft 421 kts 217°
2026-05-05 08:14 36.42331 -4.67935 39018 ft 421 kts 217°
2026-05-05 08:14 36.37416 -4.71803 39015 ft 422 kts 217°
2026-05-05 08:15 36.32452 -4.75704 39017 ft 422 kts 217°
2026-05-05 08:15 36.27477 -4.79607 39015 ft 423 kts 217°
2026-05-05 08:16 36.22504 -4.83503 39033 ft 423 kts 217°
2026-05-05 08:16 36.17526 -4.87397 39016 ft 423 kts 217°
2026-05-05 08:17 36.12553 -4.91291 39022 ft 423 kts 217°
2026-05-05 08:17 36.07627 -4.95194 39028 ft 424 kts 217°
2026-05-05 08:18 36.02660 -4.99132 39032 ft 425 kts 217°
2026-05-05 08:18 35.97670 -5.03075 39034 ft 426 kts 217°
2026-05-05 08:19 35.92672 -5.07014 39041 ft 426 kts 217°
2026-05-05 08:19 35.87672 -5.10947 39039 ft 426 kts 217°
2026-05-05 08:20 35.82673 -5.14876 39016 ft 426 kts 217°
2026-05-05 08:20 35.77878 -5.19121 39023 ft 423 kts 221°
2026-05-05 08:21 35.73260 -5.23530 39021 ft 423 kts 222°
2026-05-05 08:21 35.68585 -5.27937 39022 ft 423 kts 221°
2026-05-05 08:22 35.63872 -5.32295 39022 ft 423 kts 221°
2026-05-05 08:22 35.59938 -5.35903 39019 ft 424 kts 221°
2026-05-05 08:23 35.54425 -5.40948 39020 ft 425 kts 221°
2026-05-05 08:23 35.49682 -5.45285 39021 ft 425 kts 221°
2026-05-05 08:24 35.44937 -5.49619 39032 ft 425 kts 221°
2026-05-05 08:24 35.40961 -5.53248 39032 ft 425 kts 221°
2026-05-05 08:25 35.36246 -5.57544 39019 ft 425 kts 221°
2026-05-05 08:25 35.31494 -5.61866 39047 ft 425 kts 221°
2026-05-05 08:26 35.26742 -5.66182 39051 ft 425 kts 221°
2026-05-05 08:26 35.21993 -5.70489 39054 ft 425 kts 221°
2026-05-05 08:27 35.17238 -5.74796 39060 ft 425 kts 221°
2026-05-05 08:27 35.12477 -5.79101 39060 ft 426 kts 221°
2026-05-05 08:28 35.07713 -5.83402 39062 ft 426 kts 221°
2026-05-05 08:28 35.02976 -5.87673 39064 ft 426 kts 221°
2026-05-05 08:29 34.98209 -5.91964 39067 ft 426 kts 221°
2026-05-05 08:30 34.91056 -5.98391 39066 ft 426 kts 220°
2026-05-05 08:30 34.86280 -6.02675 39067 ft 426 kts 220°
2026-05-05 08:31 34.81512 -6.06945 39064 ft 425 kts 220°
2026-05-05 08:31 34.76776 -6.11179 39067 ft 424 kts 220°
2026-05-05 08:32 34.72017 -6.15429 39070 ft 425 kts 220°
2026-05-05 08:32 34.67247 -6.19683 39070 ft 425 kts 220°
2026-05-05 08:33 34.62478 -6.23929 39070 ft 425 kts 220°
2026-05-05 08:33 34.57738 -6.28143 39069 ft 425 kts 220°
2026-05-05 08:34 34.52974 -6.32372 39066 ft 423 kts 220°
2026-05-05 08:34 34.48225 -6.36581 39069 ft 422 kts 220°
2026-05-05 08:35 34.43479 -6.40783 39070 ft 422 kts 220°
2026-05-05 08:35 34.38732 -6.44979 39071 ft 422 kts 220°
2026-05-05 08:36 34.33987 -6.49168 39077 ft 422 kts 220°
2026-05-05 08:36 34.29263 -6.53332 39047 ft 423 kts 220°
2026-05-05 08:37 34.24510 -6.57515 39080 ft 422 kts 220°
2026-05-05 08:37 34.19768 -6.61682 39079 ft 421 kts 220°
2026-05-05 08:38 34.15026 -6.65844 39068 ft 422 kts 220°
2026-05-05 08:38 34.10282 -6.70002 39083 ft 421 kts 220°
2026-05-05 08:39 34.05528 -6.74163 39067 ft 421 kts 220°
2026-05-05 08:39 34.00727 -6.78249 39071 ft 422 kts 219°
2026-05-05 08:40 33.95854 -6.82211 39077 ft 422 kts 219°
2026-05-05 08:40 33.91020 -6.86135 39078 ft 421 kts 219°
2026-05-05 08:41 33.86170 -6.90098 39076 ft 421 kts 219°
2026-05-05 08:41 33.81329 -6.94064 39077 ft 421 kts 219°
2026-05-05 08:42 33.76488 -6.98025 39075 ft 421 kts 219°
2026-05-05 08:42 33.71645 -7.01982 39076 ft 420 kts 219°
2026-05-05 08:43 33.66817 -7.05920 39079 ft 419 kts 219°
2026-05-05 08:43 33.61982 -7.09859 39076 ft 419 kts 219°
2026-05-05 08:44 33.57150 -7.13790 39075 ft 419 kts 219°
2026-05-05 08:44 33.52350 -7.17689 39075 ft 419 kts 219°
2026-05-05 08:45 33.47516 -7.21610 39062 ft 419 kts 219°
2026-05-05 08:45 33.42680 -7.25527 39070 ft 418 kts 219°
2026-05-05 08:46 33.37874 -7.29415 39067 ft 417 kts 219°
2026-05-05 08:46 33.33070 -7.33296 39071 ft 417 kts 219°
2026-05-05 08:47 33.28262 -7.37176 39072 ft 417 kts 219°
2026-05-05 08:47 33.23483 -7.41027 39067 ft 417 kts 219°
2026-05-05 08:48 33.18510 -7.45029 39075 ft 417 kts 219°
2026-05-05 08:48 33.13699 -7.48894 39069 ft 416 kts 219°
2026-05-05 08:49 33.08855 -7.52702 39059 ft 418 kts 217°
2026-05-05 08:49 33.06353 -7.54485 38845 ft 418 kts 216°
2026-05-05 08:49 33.03834 -7.56214 38577 ft 418 kts 216°
2026-05-05 08:49 33.01303 -7.57938 38304 ft 419 kts 216°
2026-05-05 08:50 32.98773 -7.59671 38023 ft 419 kts 216°
2026-05-05 08:50 32.96250 -7.61415 37750 ft 419 kts 216°
2026-05-05 08:50 32.93764 -7.63148 37479 ft 419 kts 216°
2026-05-05 08:50 32.91246 -7.64911 37183 ft 420 kts 216°
2026-05-05 08:51 32.88733 -7.66675 36923 ft 419 kts 216°
2026-05-05 08:51 32.86219 -7.68441 36601 ft 419 kts 216°
2026-05-05 08:51 32.83715 -7.70201 35998 ft 418 kts 216°
2026-05-05 08:51 32.81197 -7.71968 35270 ft 421 kts 216°
2026-05-05 08:52 32.78654 -7.73750 34521 ft 425 kts 216°
2026-05-05 08:52 32.76094 -7.75542 33666 ft 429 kts 216°
2026-05-05 08:52 32.73509 -7.77350 32825 ft 432 kts 216°
2026-05-05 08:52 32.70910 -7.79166 31997 ft 435 kts 216°
2026-05-05 08:53 32.68287 -7.80997 31107 ft 438 kts 216°
2026-05-05 08:53 32.65682 -7.82815 30230 ft 442 kts 216°
2026-05-05 08:53 32.63022 -7.84669 29438 ft 440 kts 216°
2026-05-05 08:53 32.60394 -7.86496 28815 ft 435 kts 216°
2026-05-05 08:54 32.57790 -7.88307 28177 ft 431 kts 216°
2026-05-05 08:54 32.55217 -7.90097 27559 ft 427 kts 216°
2026-05-05 08:54 32.52661 -7.91874 26939 ft 423 kts 216°
2026-05-05 08:54 32.50129 -7.93634 26314 ft 420 kts 216°
2026-05-05 08:55 32.47616 -7.95379 25695 ft 418 kts 216°
2026-05-05 08:55 32.45115 -7.97117 25076 ft 415 kts 215°
2026-05-05 08:55 32.42630 -7.98841 24456 ft 413 kts 215°
2026-05-05 08:55 32.40185 -8.00535 23841 ft 411 kts 215°
2026-05-05 08:56 32.37716 -8.02246 23142 ft 410 kts 215°
2026-05-05 08:56 32.35261 -8.03945 22470 ft 407 kts 216°
2026-05-05 08:56 32.32830 -8.05625 21855 ft 402 kts 216°
2026-05-05 08:56 32.30427 -8.07287 21229 ft 399 kts 216°
2026-05-05 08:57 32.28042 -8.08936 20616 ft 396 kts 216°
2026-05-05 08:57 32.25674 -8.10572 19995 ft 393 kts 215°
2026-05-05 08:57 32.23324 -8.12195 19378 ft 391 kts 215°
2026-05-05 08:57 32.20981 -8.13812 18706 ft 390 kts 214°
2026-05-05 08:58 32.18571 -8.15322 17971 ft 394 kts 208°
2026-05-05 08:58 32.15952 -8.16324 17274 ft 399 kts 196°
2026-05-05 08:58 32.13181 -8.16674 16627 ft 401 kts 188°
2026-05-05 08:58 32.10394 -8.16765 15984 ft 400 kts 186°
2026-05-05 08:59 32.07618 -8.16805 15342 ft 398 kts 186°
2026-05-05 08:59 32.04869 -8.16833 14499 ft 390 kts 186°
2026-05-05 08:59 32.02176 -8.16857 13165 ft 389 kts 186°
2026-05-05 08:59 31.99447 -8.16888 12260 ft 391 kts 186°
2026-05-05 09:00 31.96750 -8.16912 11606 ft 384 kts 185°
2026-05-05 09:00 31.94100 -8.16935 10930 ft 378 kts 185°
2026-05-05 09:00 31.91522 -8.16957 10164 ft 373 kts 184°
2026-05-05 09:00 31.88938 -8.16981 9286 ft 369 kts 183°
2026-05-05 09:01 31.86385 -8.17004 8419 ft 365 kts 182°
2026-05-05 09:01 31.83864 -8.17028 7617 ft 359 kts 182°
2026-05-05 09:01 31.81382 -8.17050 6829 ft 354 kts 181°
2026-05-05 09:01 31.78945 -8.17072 6183 ft 344 kts 180°
2026-05-05 09:02 31.76621 -8.17093 5783 ft 321 kts 180°
2026-05-05 09:02 31.74472 -8.17113 5335 ft 298 kts 180°
2026-05-05 09:02 31.73132 -8.17125 5108 ft 285 kts 180°
2026-05-05 09:02 31.71207 -8.17142 4770 ft 268 kts 180°
2026-05-05 09:03 31.69394 -8.17160 4447 ft 254 kts 179°
2026-05-05 09:03 31.67681 -8.17176 4192 ft 239 kts 179°
2026-05-05 09:03 31.66076 -8.17189 3950 ft 223 kts 180°
2026-05-05 09:03 31.64574 -8.17204 3745 ft 208 kts 180°
2026-05-05 09:04 31.63170 -8.17162 3525 ft 195 kts 172°
2026-05-05 09:04 31.62092 -8.16416 3438 ft 175 kts 123°
2026-05-05 09:04 31.61615 -8.15198 3258 ft 157 kts 100°
2026-05-05 09:04 31.61559 -8.13966 3020 ft 146 kts 89°
2026-05-05 09:05 31.61517 -8.12817 2814 ft 139 kts 94°
2026-05-05 09:05 31.61393 -8.11702 2622 ft 137 kts 95°
2026-05-05 09:05 31.61300 -8.10587 2442 ft 137 kts 94°
2026-05-05 09:05 31.61203 -8.09467 2247 ft 139 kts 95°
2026-05-05 09:06 31.61103 -8.08339 2064 ft 140 kts 95°
2026-05-05 09:06 31.61003 -8.07199 1874 ft 141 kts 96°
2026-05-05 09:06 31.60903 -8.06047 1709 ft 142 kts 96°
2026-05-05 09:06 31.60802 -8.04904 1568 ft 142 kts 95°
2026-05-05 09:07 31.60717 -8.03883 1540 ft 102 kts 96°
2026-05-05 09:07 31.60652 -8.03186 1539 ft 77 kts 96°
2026-05-05 09:07 31.60604 -8.02642 1540 ft 54 kts 96°
2026-05-05 09:07 31.60577 -8.02340 1537 ft 20 kts 96°
2026-05-05 09:08 31.60565 -8.02202 1532 ft 8 kts 96°
2026-05-05 09:08 31.60538 -8.02161 1532 ft 9 kts 157°
2026-05-05 09:08 31.60480 -8.02161 1533 ft 5 kts 185°
2026-05-05 09:08 31.60465 -8.02163 1538 ft 1 kts 184°
2026-05-05 09:09 31.60451 -8.02164 1540 ft 4 kts 185°
2026-05-05 09:09 31.60411 -8.02171 1549 ft 7 kts 194°
2026-05-05 09:09 31.60350 -8.02195 1551 ft 12 kts 189°
2026-05-05 09:09 31.60255 -8.02206 1553 ft 15 kts 185°
2026-05-05 09:10 31.60158 -8.02216 1553 ft 9 kts 186°
2026-05-05 09:10 31.60137 -8.02222 1553 ft 2 kts 209°
2026-05-05 09:10 31.60129 -8.02239 1553 ft 3 kts 248°
2026-05-05 09:10 31.60128 -8.02276 1553 ft 6 kts 274°
2026-05-05 09:11 31.60130 -8.02311 1553 ft 3 kts 275°
2026-05-05 09:11 31.60131 -8.02319 1553 ft 0 kts 276°